time_stamp(utc),avg(mph),gust(mph),direction(deg),12m_air_temp(f),sonic_u(cm/s),sonic_v(cm/s),sonic_w(cm/s),pressure,2m_air_temp(f),pyranometer(W/m^2)
"2021-09-07 00:02:39+00",8.9,9.9,,76.2,-383,-206,2,1010.29,74.2,0
"2021-09-07 00:07:39+00",8.9,9.9,,76,-376,-206,10,1010.37,74.1,0
"2021-09-07 00:12:39+00",8.3,9.3,,75.9,-351,-206,10,1010.48,74,0
"2021-09-07 00:17:39+00",8.4,9.4,,75.9,-351,-207,0,1010.56,73.9,0
"2021-09-07 00:22:39+00",8.2,9.2,,75.8,-348,-197,6,1010.5,73.8,0
"2021-09-07 00:27:39+00",8.6,9.6,,75.8,-363,-180,10,1010.65,73.7,0
"2021-09-07 00:32:39+00",9.0,11.0,,75.6,-373,-192,4,1010.75,73.7,0
"2021-09-07 00:37:39+00",8.8,9.8,,75.5,-379,-203,3,1010.75,73.6,0
"2021-09-07 00:42:39+00",8.8,9.8,,75.5,-371,-203,3,1010.81,73.6,0
"2021-09-07 00:47:39+00",9.2,10.2,,75.4,-389,-213,4,1010.98,73.6,0
"2021-09-07 00:52:39+00",8.5,10.5,,75.5,-351,-211,11,1011.04,73.6,0
"2021-09-07 00:57:39+00",7.8,8.8,,75.5,-323,-197,7,1011.06,73.7,0
"2021-09-07 01:02:39+00",8.6,10.6,,75.6,-334,-226,9,1011.12,73.7,0
"2021-09-07 01:07:39+00",9.0,10.0,,75.7,-377,-225,9,1011.11,73.9,0
"2021-09-07 01:12:39+00",9.6,11.6,,75.8,-405,-235,7,1011.18,74,0
"2021-09-07 01:17:39+00",9.5,11.5,,75.7,-396,-240,6,1011.34,74.2,0
"2021-09-07 01:22:39+00",9.9,10.9,,75.6,-419,-233,9,1011.34,74.2,0
"2021-09-07 01:27:39+00",8.5,9.5,,75.4,-356,-193,17,1011.33,74.3,0
"2021-09-07 01:32:39+00",8.3,9.3,,75.3,-350,-189,13,1011.32,74.2,0
"2021-09-07 01:37:39+00",9.1,11.1,,75.1,-364,-161,5,1011.36,74.1,0
"2021-09-07 01:42:39+00",8.9,9.9,,75,-354,-130,13,1011.5,74,0
"2021-09-07 01:47:39+00",8.7,9.7,,74.8,-350,-130,7,1011.48,73.9,0
"2021-09-07 01:52:39+00",8.9,9.9,,74.6,-351,-137,10,1011.54,73.8,0
"2021-09-07 01:57:39+00",8.9,10.9,,74.5,-360,-136,19,1011.54,73.6,0
"2021-09-07 02:02:39+00",10.0,12.0,,74.4,-417,-187,12,1011.57,73.5,0
"2021-09-07 02:07:39+00",9.5,11.5,,74.2,-403,-213,6,1011.72,73.4,0
"2021-09-07 02:12:39+00",10.3,11.3,,74.2,-419,-187,7,1011.73,73.3,0
"2021-09-07 02:17:39+00",10.6,12.6,,74.2,-425,-165,20,1011.73,73.2,0
"2021-09-07 02:22:39+00",10.5,12.5,,73.9,-433,-159,25,1011.84,73.1,0
"2021-09-07 02:27:39+00",10.8,11.8,,73.7,-438,-144,11,1011.86,73,0
"2021-09-07 02:32:39+00",7.5,9.5,,73.3,-318,-44,1,1011.91,72.9,0
"2021-09-07 02:37:39+00",7.2,8.2,,73.1,-307,-41,10,1011.92,72.7,0
"2021-09-07 02:42:39+00",9.2,11.2,,73.1,-387,-91,9,1011.93,72.5,0
"2021-09-07 02:47:39+00",11.1,12.1,,73.1,-448,-140,7,1011.98,72.4,0
"2021-09-07 02:52:39+00",9.9,10.9,,73.1,-427,-97,14,1012.07,72.3,0
"2021-09-07 02:57:39+00",10.4,12.4,,73.1,-453,-45,6,1012.13,72.3,0
"2021-09-07 03:02:39+00",10.4,11.4,,73,-459,-27,11,1012.09,72.3,0
"2021-09-07 03:07:39+00",10.9,12.9,,72.9,-489,-61,20,1012.16,72.3,0
"2021-09-07 03:12:39+00",10.4,11.4,,72.9,-450,-48,15,1012.16,72.2,0
"2021-09-07 03:17:39+00",11.3,13.3,,73,-483,-63,25,1012.13,72.2,0
"2021-09-07 03:22:39+00",9.8,10.8,,72.9,-438,-38,20,1012.15,72.2,0
"2021-09-07 03:27:39+00",11.6,13.6,,72.9,-515,-4,20,1012.23,72.1,0
"2021-09-07 03:32:39+00",11.3,13.3,,72.8,-504,-16,23,1012.23,72.1,0
"2021-09-07 03:37:39+00",10.4,11.4,,72.6,-467,9,12,1012.39,72,0
"2021-09-07 03:42:39+00",11.6,12.6,,72.5,-514,11,18,1012.37,71.8,0
"2021-09-07 03:47:39+00",10.2,11.2,,72.4,-450,47,24,1012.4,71.8,0
"2021-09-07 03:52:39+00",10.7,11.7,,72.4,-487,24,10,1012.4,71.7,0
"2021-09-07 03:57:39+00",9.6,10.6,,72.2,-434,5,7,1012.4,71.6,0
"2021-09-07 04:02:39+00",11.1,13.1,,72.1,-494,13,17,1012.4,71.5,0
"2021-09-07 04:07:39+00",9.8,11.8,,72.1,-441,-1,5,1012.45,71.3,0
"2021-09-07 04:12:39+00",10.5,12.5,,72,-465,-24,16,1012.5,71.3,0
"2021-09-07 04:17:39+00",11.1,12.1,,72.1,-497,8,11,1012.48,71.2,0
"2021-09-07 04:22:39+00",12.0,13.0,,72.3,-539,52,14,1012.56,71.3,0
"2021-09-07 04:27:39+00",11.1,12.1,,72.3,-500,58,10,1012.61,71.4,0
"2021-09-07 04:32:39+00",11.7,12.7,,72.2,-528,88,17,1012.7,71.4,0
"2021-09-07 04:37:39+00",11.7,12.7,,72.1,-526,95,21,1012.59,71.4,0
"2021-09-07 04:42:39+00",10.8,11.8,,72,-492,87,16,1012.73,71.4,0
"2021-09-07 04:47:39+00",9.6,10.6,,71.7,-435,69,24,1012.67,71.2,0
"2021-09-07 04:52:39+00",10.0,12.0,,71.5,-457,70,14,1012.73,71.1,0
"2021-09-07 04:57:39+00",11.2,12.2,,71.5,-505,89,20,1012.75,70.9,0
"2021-09-07 05:02:39+00",8.9,10.9,,71.4,-392,94,9,1012.76,70.8,0
"2021-09-07 05:07:39+00",9.3,10.3,,71.3,-409,64,25,1012.77,70.6,0
"2021-09-07 05:12:39+00",8.8,9.8,,71.1,-402,73,17,1012.78,70.5,0
"2021-09-07 05:17:39+00",10.1,11.1,,70.9,-453,71,18,1012.73,70.3,0
"2021-09-07 05:22:39+00",9.7,10.7,,70.7,-431,85,28,1012.89,70.2,0
"2021-09-07 05:27:39+00",9.9,10.9,,70.4,-437,112,18,1012.83,69.9,0
"2021-09-07 05:32:39+00",8.8,9.8,,70.2,-374,118,14,1012.82,69.6,0
"2021-09-07 05:37:39+00",8.5,9.5,,70.2,-364,134,16,1012.77,69.3,0
"2021-09-07 05:42:39+00",9.6,10.6,,70.2,-412,141,15,1012.8,69,0
"2021-09-07 05:47:39+00",8.6,10.6,,70.2,-360,112,18,1012.8,68.9,0
"2021-09-07 05:52:39+00",7.4,8.4,,70,-320,87,16,1012.78,68.9,0
"2021-09-07 05:57:39+00",7.2,9.2,,70.1,-311,59,21,1012.77,68.8,0
"2021-09-07 06:02:39+00",7.4,8.4,,69.7,-331,26,10,1012.79,68.8,0
"2021-09-07 06:07:39+00",6.3,8.3,,69.7,-267,35,20,1012.81,68.6,0
"2021-09-07 06:12:39+00",7.2,8.2,,69.5,-315,-10,1,1012.83,68.6,0
"2021-09-07 06:17:39+00",10.1,11.1,,69,-455,8,14,1012.88,68.3,0
"2021-09-07 06:22:39+00",10.1,11.1,,68.7,-455,51,23,1012.78,68.1,0
"2021-09-07 06:27:39+00",9.6,10.6,,68.8,-430,83,18,1012.74,68.1,0
"2021-09-07 06:32:39+00",9.5,10.5,,68.8,-419,102,18,1012.78,68,0
"2021-09-07 06:37:39+00",9.5,10.5,,69,-427,88,22,1012.85,68,0
"2021-09-07 06:42:39+00",10.2,11.2,,68.9,-447,113,18,1012.78,67.9,0
"2021-09-07 06:47:39+00",10.8,11.8,,68.8,-471,154,18,1012.76,67.8,0
"2021-09-07 06:52:39+00",9.7,10.7,,68.8,-416,109,8,1012.85,67.7,0
"2021-09-07 06:57:39+00",9.6,10.6,,68.9,-404,143,9,1012.96,67.6,0
"2021-09-07 07:02:39+00",10.7,11.7,,68.8,-460,163,20,1012.92,67.5,0
"2021-09-07 07:07:39+00",10.9,11.9,,68.7,-463,159,19,1012.91,67.4,0
"2021-09-07 07:12:39+00",9.4,10.4,,68.7,-395,145,15,1012.94,67.3,0
"2021-09-07 07:17:39+00",9.9,10.9,,68.9,-428,155,23,1013.03,67.2,0
"2021-09-07 07:22:39+00",8.5,9.5,,69,-357,116,4,1013.02,67.3,0
"2021-09-07 07:27:39+00",10.1,11.1,,69,-429,169,10,1013.05,67.3,0
"2021-09-07 07:32:39+00",8.5,9.5,,69,-363,151,7,1013.07,67.3,0
"2021-09-07 07:37:39+00",8.8,9.8,,68.9,-373,126,9,1013.1,67.2,0
"2021-09-07 07:42:39+00",8.3,9.3,,68.8,-351,89,18,1013.13,67.2,0
"2021-09-07 07:47:39+00",8.5,8.5,,68.6,-361,143,14,1013.12,67.2,0
"2021-09-07 07:52:39+00",8.3,10.3,,68.5,-347,147,3,1013.15,67,0
"2021-09-07 07:57:39+00",8.0,10.0,,68.7,-330,163,23,1013.23,67,0
"2021-09-07 08:02:39+00",8.2,10.2,,68.8,-309,203,7,1013.23,66.9,0
"2021-09-07 08:07:39+00",8.6,9.6,,69.2,-336,203,22,1013.35,67.1,0
"2021-09-07 08:12:39+00",10.3,11.3,,69.1,-419,202,20,1013.39,67.1,0
"2021-09-07 08:17:39+00",10.5,11.5,,68.9,-438,189,14,1013.34,67.1,0
"2021-09-07 08:22:39+00",11.5,13.5,,68.8,-470,216,27,1013.42,67,0
"2021-09-07 08:27:39+00",9.9,10.9,,68.6,-411,163,17,1013.39,67,0
"2021-09-07 08:32:39+00",10.4,12.4,,68.4,-409,231,17,1013.43,67,0
"2021-09-07 08:37:39+00",11.0,13.0,,68.4,-428,267,31,1013.47,67,0
"2021-09-07 08:42:39+00",9.7,10.7,,68.3,-385,212,14,1013.48,67,0
"2021-09-07 08:47:39+00",9.9,11.9,,68.4,-401,212,7,1013.55,66.9,0
"2021-09-07 08:52:39+00",9.2,11.2,,68.3,-347,223,48,1013.54,67,0
"2021-09-07 08:57:39+00",11.0,13.0,,68.1,-379,318,26,1013.5,66.9,0
"2021-09-07 09:02:39+00",10.1,11.1,,67.8,-359,265,25,1013.55,66.8,0
"2021-09-07 09:07:39+00",10.7,11.7,,67.6,-387,300,18,1013.62,66.7,0
"2021-09-07 09:12:39+00",9.5,10.5,,67.3,-337,262,28,1013.69,66.5,0
"2021-09-07 09:17:39+00",8.8,10.8,,66.8,-313,247,27,1013.73,66.2,0
"2021-09-07 09:22:39+00",9.3,10.3,,66.7,-329,282,32,1013.77,66,0
"2021-09-07 09:27:39+00",8.6,9.6,,66.4,-296,253,24,1013.93,65.9,0
"2021-09-07 09:32:39+00",8.2,10.2,,66.4,-319,192,43,1014.01,65.7,0
"2021-09-07 09:37:39+00",9.1,11.1,,66.2,-362,183,11,1014.06,65.5,0
"2021-09-07 09:42:39+00",9.2,10.2,,66.1,-389,148,22,1014.13,65.4,0
"2021-09-07 09:47:39+00",8.8,10.8,,66,-361,185,15,1014.21,65.2,0
"2021-09-07 09:52:39+00",8.3,10.3,,66.1,-319,191,19,1014.2,65.1,0
"2021-09-07 09:57:39+00",9.5,11.5,,66.2,-352,255,33,1014.22,65.1,0
"2021-09-07 10:02:39+00",9.1,10.1,,66.1,-317,247,28,1014.29,65.2,0
"2021-09-07 10:07:39+00",8.3,10.3,,66,-299,234,25,1014.34,65.2,0
"2021-09-07 10:12:39+00",7.2,8.2,,65.9,-272,177,14,1014.36,65.1,0
"2021-09-07 10:17:39+00",8.9,9.9,,65.8,-314,246,19,1014.37,65,0
"2021-09-07 10:22:39+00",8.1,9.1,,65.8,-298,211,23,1014.33,65,0
"2021-09-07 10:27:39+00",9.8,10.8,,65.7,-359,253,15,1014.41,64.9,0
"2021-09-07 10:32:39+00",9.5,10.5,,65.7,-348,245,18,1014.41,64.8,0
"2021-09-07 10:37:39+00",8.8,9.8,,65.5,-328,213,20,1014.42,64.8,0
"2021-09-07 10:42:39+00",7.4,8.4,,65.3,-289,172,20,1014.49,64.7,0
"2021-09-07 10:47:39+00",8.8,9.8,,65.3,-342,187,17,1014.68,64.6,0
"2021-09-07 10:52:39+00",7.2,8.2,,65.2,-277,161,18,1014.76,64.5,0
"2021-09-07 10:57:39+00",8.2,9.2,,65.4,-296,221,19,1014.79,64.6,0
"2021-09-07 11:02:39+00",8.6,9.6,,65.4,-294,251,20,1014.81,64.7,0
"2021-09-07 11:07:39+00",8.1,9.1,,65.4,-251,245,15,1014.71,64.8,0
"2021-09-07 11:12:39+00",7.1,8.1,,65.3,-213,239,8,1014.72,64.9,0
"2021-09-07 11:17:39+00",7.3,8.3,,64.8,-212,241,10,1014.79,64.7,0
"2021-09-07 11:22:39+00",6.6,7.6,,64.5,-211,204,16,1014.87,64.7,0
"2021-09-07 11:27:39+00",6.1,7.1,,64.5,-183,206,8,1014.86,64.8,0
"2021-09-07 11:32:39+00",5.3,6.3,,64.7,-100,196,3,1014.96,65.1,0
"2021-09-07 11:37:39+00",5.9,6.9,,64.7,-147,205,6,1014.95,65.3,0
"2021-09-07 11:42:39+00",7.3,8.3,,64.7,-192,259,11,1015.02,65.5,0
"2021-09-07 11:47:39+00",6.5,7.5,,64.8,-160,231,26,1015.03,65.7,0
"2021-09-07 11:52:39+00",6.0,7.0,,65,-174,206,37,1014.92,66,0
"2021-09-07 11:57:39+00",5.7,7.7,,65.2,-119,211,25,1014.82,66.3,0
"2021-09-07 12:02:39+00",5.7,6.7,,65.4,-83,228,10,1014.82,66.7,0
"2021-09-07 12:07:39+00",4.3,5.3,,65.9,59,166,2,1014.77,67.3,0
"2021-09-07 12:12:39+00",5.5,6.5,,66.4,13,226,-15,1014.79,67.7,0
"2021-09-07 12:17:39+00",4.3,5.3,,66.9,-5,180,8,1014.78,68.2,0
"2021-09-07 12:22:39+00",5.9,6.9,,67.3,-54,251,-8,1014.78,68.9,0
"2021-09-07 12:27:39+00",5.9,7.9,,67.7,-89,246,14,1014.82,69.3,0
"2021-09-07 12:32:39+00",7.4,8.4,,68.5,-40,314,2,1014.82,70,0
"2021-09-07 12:37:39+00",6.7,7.7,,68.9,-84,273,8,1014.92,70.7,0
"2021-09-07 12:42:39+00",6.5,7.5,,69.3,-66,272,-5,1014.88,71.3,0
"2021-09-07 12:47:39+00",6.4,7.4,,69.6,-24,275,-1,1014.86,71.9,0
"2021-09-07 12:52:39+00",6.2,7.2,,70,-42,259,-10,1014.94,72.3,0
"2021-09-07 12:57:39+00",4.6,5.6,,70.4,-14,197,-8,1014.89,72.6,0
"2021-09-07 13:02:39+00",5.1,6.1,,70.9,-83,206,3,1015.07,73.1,0
"2021-09-07 13:07:39+00",6.4,7.4,,71.1,11,273,9,1015.06,73.5,0
"2021-09-07 13:12:39+00",6.2,7.2,,71.2,-83,255,-14,1015.13,73.6,0
"2021-09-07 13:17:39+00",6.0,7.0,,71.5,-57,255,4,1015.14,73.9,0
"2021-09-07 13:22:39+00",6.6,8.6,,71.7,-16,288,20,1015.21,74.2,0
"2021-09-07 13:27:39+00",5.3,6.3,,72,-6,216,-13,1015.21,74.3,0
"2021-09-07 13:32:39+00",5.3,6.3,,72.2,23,226,-2,1015.24,74.6,0
"2021-09-07 13:37:39+00",6.9,9.9,,72.5,-37,292,4,1015.36,74.9,0
"2021-09-07 13:42:39+00",2.5,4.5,,72.8,22,54,13,1015.37,74.9,0
"2021-09-07 13:47:39+00",3.8,5.8,,73,-27,138,-10,1015.37,75.1,0
"2021-09-07 13:52:39+00",5.2,6.2,,73.3,-96,192,10,1015.4,75.4,0
"2021-09-07 13:57:39+00",4.4,5.4,,73.6,11,151,31,1015.42,75.9,0
"2021-09-07 14:02:39+00",2.9,4.9,,73.8,-2,99,-1,1015.4,76,0
"2021-09-07 14:07:39+00",4.1,5.1,,74.1,-87,148,-15,1015.42,76.3,0
"2021-09-07 14:12:39+00",3.5,4.5,,74.4,-84,120,1,1015.44,76.7,0
"2021-09-07 14:17:39+00",3.4,4.4,,74.3,-121,65,35,1015.44,77,0
"2021-09-07 14:22:39+00",3.8,3.8,,74.2,-129,72,34,1015.48,77.6,0
"2021-09-07 14:27:39+00",4.8,5.8,,73.9,-203,37,-1,1015.46,78.2,0
"2021-09-07 14:32:39+00",3.8,4.8,,73.7,-155,-15,-12,1015.57,78.8,0
"2021-09-07 14:37:39+00",4.2,5.2,,73.8,-164,-85,17,1015.55,79.4,0
"2021-09-07 14:42:39+00",4.8,5.8,,74,-203,40,13,1015.56,79.9,0
"2021-09-07 14:47:39+00",4.4,5.4,,74.1,-185,48,16,1015.55,80.5,0
"2021-09-07 14:52:39+00",2.2,3.2,,74.3,-73,25,-9,1015.44,80.5,0
"2021-09-07 14:57:39+00",3.4,4.4,,74.5,-130,8,4,1015.51,81.1,0
"2021-09-07 15:02:39+00",2.1,3.1,,74.7,-83,47,-17,1015.51,80.9,0
"2021-09-07 15:07:39+00",3.9,4.9,,74.8,-132,87,-26,1015.48,80.5,0
"2021-09-07 15:12:39+00",1.9,2.9,,75.2,-48,38,7,1015.49,79.9,0
"2021-09-07 15:17:39+00",2.7,3.7,,75.5,-108,-1,-10,1015.5,80.5,0
"2021-09-07 15:22:39+00",2.5,3.5,,75.6,-97,9,10,1015.44,80.3,0
"2021-09-07 15:27:39+00",4.0,5.0,,75.6,-89,-146,-2,1015.58,80.7,0
"2021-09-07 15:32:39+00",5.4,6.4,,75.8,-235,-14,4,1015.59,80.8,0
"2021-09-07 15:37:39+00",5.2,6.2,,75.8,-221,-57,18,1015.55,80.8,0
"2021-09-07 15:42:39+00",4.4,5.4,,75.9,-80,-172,2,1015.63,81.3,0
"2021-09-07 15:47:39+00",5.4,7.4,,76,-78,-208,-18,1015.6,80.7,0
"2021-09-07 15:52:39+00",4.2,6.2,,76.2,15,-168,13,1015.53,80.7,0
"2021-09-07 15:57:39+00",6.0,7.0,,76.2,-81,-236,-24,1015.53,79.1,0
"2021-09-07 16:02:39+00",4.6,6.6,,76,7,-179,26,1015.45,78.1,0
"2021-09-07 16:07:39+00",5.4,7.4,,76,11,-212,-8,1015.51,78,0
"2021-09-07 16:12:39+00",4.8,5.8,,76,-37,-184,19,1015.5,78,0
"2021-09-07 16:17:39+00",8.0,9.0,,75.7,110,-320,-14,1015.48,77.8,0
"2021-09-07 16:22:39+00",7.6,8.6,,75.1,150,-286,-19,1015.32,77.2,0
"2021-09-07 16:27:39+00",9.0,11.0,,74.8,129,-362,-22,1015.32,77,0
"2021-09-07 16:32:39+00",10.2,12.2,,74.5,163,-406,6,1015.35,76.7,0
"2021-09-07 16:37:39+00",9.9,10.9,,74.3,179,-379,-8,1015.35,76.3,0
"2021-09-07 16:42:39+00",9.2,10.2,,74.1,187,-344,16,1015.34,76.2,0
"2021-09-07 16:47:39+00",10.6,12.6,,74.1,156,-444,-14,1015.28,76.3,0
"2021-09-07 16:52:39+00",10.3,12.3,,74.2,153,-427,-20,1015.18,76.3,0
"2021-09-07 16:57:39+00",11.2,12.2,,74.1,246,-429,-14,1015.22,76.2,0
"2021-09-07 17:02:39+00",10.3,12.3,,74.5,203,-397,0,1015.17,76.5,0
"2021-09-07 17:07:39+00",8.5,10.5,,75.3,119,-321,23,1015.21,77,0
"2021-09-07 17:12:39+00",10.2,11.2,,74.8,176,-401,-6,1015.08,76.8,0
"2021-09-07 17:17:39+00",10.4,11.4,,74.9,213,-397,-13,1015.06,76.8,0
"2021-09-07 17:22:39+00",9.7,10.7,,75,194,-356,-3,1015.05,77,0
"2021-09-07 17:27:39+00",10.4,12.4,,74.9,151,-398,-2,1015.06,76.9,0
"2021-09-07 17:32:39+00",8.6,11.6,,74.9,161,-339,41,1015.01,76.7,0
"2021-09-07 17:37:39+00",11.3,13.3,,74.6,168,-457,-25,1014.99,76.9,0
"2021-09-07 17:42:39+00",9.7,13.7,,74.7,143,-389,26,1015.03,76.7,0
"2021-09-07 17:47:39+00",10.9,12.9,,74.4,128,-444,-17,1015.03,76.6,0
"2021-09-07 17:52:39+00",10.7,11.7,,74.4,180,-428,-15,1014.94,76.7,0
"2021-09-07 17:57:39+00",10.7,12.7,,74.6,154,-423,-15,1014.91,76.3,0
"2021-09-07 18:02:39+00",11.9,14.9,,74.6,206,-446,-6,1014.85,76.4,0
"2021-09-07 18:07:39+00",12.1,15.1,,74.8,200,-469,-19,1014.88,76.7,0
"2021-09-07 18:12:39+00",12.6,13.6,,74.8,286,-475,-1,1014.76,76.9,0
"2021-09-07 18:17:39+00",10.5,12.5,,75.1,158,-415,17,1014.78,77,0
"2021-09-07 18:22:39+00",12.7,14.7,,74.8,264,-487,-12,1014.76,76.9,0
"2021-09-07 18:27:39+00",12.4,15.4,,74.7,207,-465,1,1014.72,76.7,0
"2021-09-07 18:32:39+00",13.9,14.9,,74.6,280,-539,-9,1014.63,76.6,0
"2021-09-07 18:37:39+00",13.0,16.0,,74.9,175,-543,-29,1014.55,76.7,0
"2021-09-07 18:42:39+00",10.9,14.9,,75.3,138,-447,30,1014.52,77.2,0
"2021-09-07 18:47:39+00",12.9,14.9,,75.2,122,-536,-31,1014.48,76.9,0
"2021-09-07 18:52:39+00",12.2,14.2,,75.1,231,-474,12,1014.44,76.8,0
"2021-09-07 18:57:39+00",12.1,15.1,,75.3,211,-473,4,1014.5,77,0
"2021-09-07 19:02:39+00",11.6,16.6,,75,165,-474,11,1014.44,77,0
"2021-09-07 19:07:39+00",11.8,13.8,,74.9,154,-488,7,1014.4,76.7,0
"2021-09-07 19:12:39+00",13.7,14.7,,75.2,247,-536,-23,1014.33,76.9,0
"2021-09-07 19:17:39+00",11.2,14.2,,75.5,167,-435,32,1014.31,77.2,0
"2021-09-07 19:22:39+00",11.6,14.6,,75.8,113,-477,15,1014.23,77.5,0
"2021-09-07 19:27:39+00",12.2,16.2,,76.2,177,-486,12,1014.2,77.6,0
"2021-09-07 19:32:39+00",12.7,13.7,,76.1,212,-495,6,1014.18,77.6,0
"2021-09-07 19:37:39+00",12.7,14.7,,76.2,101,-537,-14,1014.11,77.6,0
"2021-09-07 19:42:39+00",14.6,16.6,,76.2,125,-615,-29,1014.04,77.5,0
"2021-09-07 19:47:39+00",11.7,15.7,,76.4,104,-484,19,1014.06,77.6,0
"2021-09-07 19:52:39+00",14.4,17.4,,76.2,207,-604,-25,1014.03,77.4,0
"2021-09-07 19:57:39+00",11.6,14.6,,76.4,171,-455,20,1013.93,77.7,0
"2021-09-07 20:02:39+00",14.9,17.9,,76.3,198,-634,-17,1013.89,77.6,0
"2021-09-07 20:07:39+00",13.0,16.0,,76.6,87,-557,-1,1013.87,77.6,0
"2021-09-07 20:12:39+00",11.9,16.9,,76.5,72,-502,1,1013.81,77.4,0
"2021-09-07 20:17:39+00",15.3,17.3,,76.2,83,-627,-11,1013.69,77,0
"2021-09-07 20:22:39+00",17.4,19.4,,76,155,-729,-28,1013.65,76.9,0
"2021-09-07 20:27:39+00",14.3,18.3,,76.4,29,-616,-34,1013.55,77,0
"2021-09-07 20:32:39+00",15.2,17.2,,76.6,62,-642,-40,1013.39,77.3,0
"2021-09-07 20:37:39+00",13.4,20.4,,76.5,1,-549,-8,1013.42,77.2,0
"2021-09-07 20:42:39+00",12.1,15.1,,76.8,1,-496,-41,1013.52,77.5,0
"2021-09-07 20:47:39+00",14.2,17.2,,76.8,40,-597,-30,1013.46,77.4,0
"2021-09-07 20:52:39+00",10.7,14.7,,77.1,21,-447,13,1013.43,77.6,0
"2021-09-07 20:57:39+00",12.1,16.1,,77.2,-15,-525,-24,1013.46,77.7,0
"2021-09-07 21:02:39+00",12.1,16.1,,77.3,-24,-505,-8,1013.37,77.7,0
"2021-09-07 21:07:39+00",10.0,15.0,,77.2,15,-425,6,1013.28,77.6,0
"2021-09-07 21:12:39+00",16.1,20.1,,77,-74,-682,-21,1013.31,77.4,0
"2021-09-07 21:17:39+00",14.0,17.0,,76.7,-27,-618,-37,1013.29,77.1,0
"2021-09-07 21:22:39+00",13.2,17.2,,76.7,-68,-557,-2,1013.31,77.1,0
"2021-09-07 21:27:39+00",15.7,19.7,,76.9,-119,-670,-18,1013.31,77.2,0
"2021-09-07 21:32:39+00",14.9,18.9,,76.9,-151,-624,8,1013.39,77.2,0
"2021-09-07 21:37:39+00",12.6,16.6,,76.7,-42,-542,-10,1013.38,77,0
"2021-09-07 21:42:39+00",15.7,18.7,,76.6,-28,-677,-23,1013.28,76.7,0
"2021-09-07 21:47:39+00",14.4,18.4,,76.5,-91,-604,-12,1013.29,76.7,0
"2021-09-07 21:52:39+00",12.4,17.4,,76.5,-84,-507,-10,1013.31,76.6,0
"2021-09-07 21:57:39+00",13.0,17.0,,76.4,-82,-541,-2,1013.37,76.5,0
"2021-09-07 22:02:39+00",15.2,18.2,,76.3,-101,-650,-18,1013.39,76.5,0
"2021-09-07 22:07:39+00",12.5,17.5,,76.2,-76,-546,-18,1013.33,76.4,0
"2021-09-07 22:12:39+00",14.8,18.8,,76,-144,-648,-12,1013.23,76.1,0
"2021-09-07 22:17:39+00",11.6,15.6,,75.8,-96,-521,-13,1013.27,75.9,0
"2021-09-07 22:22:39+00",13.0,18.0,,75.7,-106,-547,4,1013.5,75.8,0
"2021-09-07 22:27:39+00",13.1,18.1,,75.6,-131,-578,-7,1013.55,75.7,0
"2021-09-07 22:32:39+00",12.5,18.5,,75.4,-57,-555,1,1013.48,75.5,0
"2021-09-07 22:37:39+00",18.2,22.2,,75.2,-219,-771,-12,1013.49,75.2,0
"2021-09-07 22:42:39+00",13.0,16.0,,75.2,-138,-565,13,1013.53,75.1,0
"2021-09-07 22:47:39+00",9.9,14.9,,75.1,-81,-390,17,1013.54,74.9,0
"2021-09-07 22:52:39+00",12.7,15.7,,75,-126,-542,6,1013.61,74.8,0
"2021-09-07 22:57:39+00",11.9,14.9,,74.9,-120,-492,20,1013.64,74.7,0
"2021-09-07 23:02:39+00",13.6,15.6,,74.8,-161,-573,-9,1013.56,74.5,0
"2021-09-07 23:07:39+00",13.7,17.7,,74.7,-165,-553,-15,1013.4,74.3,0
"2021-09-07 23:12:39+00",15.8,17.8,,74.6,-282,-644,-7,1013.4,74.2,0
"2021-09-07 23:17:39+00",13.0,15.0,,74.5,-200,-533,-9,1013.47,74.1,0
"2021-09-07 23:22:39+00",14.2,17.2,,74.4,-211,-587,-5,1013.55,73.9,0
"2021-09-07 23:27:39+00",12.1,15.1,,74.3,-136,-490,-5,1013.54,73.8,0
"2021-09-07 23:32:39+00",11.9,14.9,,74.2,-145,-506,-17,1013.56,73.7,0
"2021-09-07 23:37:39+00",9.2,11.2,,74,-113,-382,7,1013.54,73.6,0
"2021-09-07 23:42:39+00",12.4,15.4,,74,-149,-513,1,1013.57,73.5,0
"2021-09-07 23:47:39+00",11.3,14.3,,74,-153,-469,-15,1013.56,73.5,0
"2021-09-07 23:52:39+00",9.8,12.8,,73.9,-123,-422,8,1013.59,73.4,0
"2021-09-07 23:57:39+00",10.9,14.9,,73.9,-122,-470,-19,1013.61,73.3,0
